Elmendorf Air Force Base, AK

7:55 PM AKST on February 06, 2016 (GMT -0900)
Elmendorf Air Force Base

Weather History for PAED - July, 2013

Change the Weather History Date:

Friday, July 26, 2013

  Actual Average Record
Temperature  
Mean Temperature 64 °F -  
Max Temperature 70 °F 66 °F 80 °F (1987)
Min Temperature 59 °F 51 °F 45 °F (1961)
Growing Degree Days 14 (Base 50)    
Moisture  
Dew Point 57 °F    
Average Humidity 83    
Maximum Humidity 94    
Minimum Humidity 67    
Precipitation  
Precipitation 0.02 in - - ()
Sea Level Pressure  
Sea Level Pressure 30.20 in    
Wind  
Wind Speed 4 mph (WNW)    
Max Wind Speed 17 mph    
Max Gust Speed -    
Visibility 10 miles    
Events      
Averages and records for this station are not official NWS values.
T = Trace of Precipitation, MM = Missing Value Source: NWS Daily Summary

Daily Weather History Graph

Daily Weather History Graph

Search for Another Location

Airport or City:

Trip Planner

Search our weather history database for the weather conditions in past years. The results will help you decide how hot, cold, wet, or windy it might be!

Date:

Astronomy

Jul. 26, 2013 Rise Set
Actual Time 5:17 AM AKDT 10:52 PM AKDT
Civil Twilight 4:04 AM AKDT 12:04 AM AKDT
Nautical Twilight 2:38 AM AKDT 1:33 AM AKDT
Astronomical Twilight Sun does not rise Sun does not rise
Moon 11:18 PM AKDT (7/26) 11:50 AM AKDT (7/26)
Length of Visible Light 20h 00m
Length of Day
17h 35m
Waning Gibbous, 79% of the Moon is Illuminated
Jul 26
Waning Gibbous
Jul 29
Last Quarter
Aug 6
New
Aug 14
First Quarter
Aug 20
Full

Hourly Weather History & Observations

Time (AKDT) Temp. Dew Point Humidity Pressure Visibility Wind Dir Wind Speed Gust Speed Precip Events Conditions
12:55 AM 60.1 °F 57.7 °F 92% 30.09 in 10.0 mi Calm Calm - N/A   Partly Cloudy
1:55 AM 60.3 °F 57.7 °F 91% 30.10 in 10.0 mi Calm Calm - N/A   Overcast
2:55 AM 61.2 °F 58.3 °F 90% 30.12 in 10.0 mi Calm Calm - N/A   Overcast
3:48 AM 60.8 °F 57.2 °F 88% 30.13 in 10.0 mi North 3.5 mph - N/A   Overcast
3:55 AM 60.3 °F 57.7 °F 91% 30.13 in 10.0 mi North 3.5 mph - N/A   Overcast
4:02 AM 60.8 °F 57.2 °F 88% 30.13 in 10.0 mi NW 4.6 mph - N/A   Overcast
4:08 AM 60.8 °F 57.2 °F 88% 30.13 in 10.0 mi North 3.5 mph - N/A   Overcast
4:55 AM 61.3 °F 57.0 °F 86% 30.14 in 10.0 mi North 3.5 mph - N/A   Overcast
5:55 AM 61.2 °F 56.1 °F 83% 30.15 in 10.0 mi Calm Calm - N/A   Overcast
6:55 AM 61.0 °F 55.6 °F 82% 30.17 in 10.0 mi North 4.6 mph - N/A   Overcast
7:20 AM 60.8 °F 55.4 °F 82% 30.17 in 10.0 mi NNW 4.6 mph - N/A   Overcast
7:30 AM 60.8 °F 55.4 °F 82% 30.17 in 10.0 mi NW 4.6 mph - N/A   Overcast
7:55 AM 60.4 °F 55.8 °F 85% 30.18 in 10.0 mi WNW 5.8 mph - N/A   Overcast
7:58 AM 60.8 °F 55.4 °F 82% 30.18 in 10.0 mi WNW 5.8 mph - N/A   Light Drizzle
8:44 AM 59.0 °F 57.2 °F 94% 30.19 in 10.0 mi Calm Calm - N/A   Light Drizzle
8:46 AM 60.8 °F 57.2 °F 88% 30.19 in 10.0 mi NNW 4.6 mph - N/A   Overcast
8:53 AM 60.8 °F 57.2 °F 88% 30.19 in 10.0 mi North 4.6 mph - N/A   Overcast
8:55 AM 60.1 °F 57.2 °F 90% 30.19 in 10.0 mi North 3.5 mph - 0.02 in   Overcast
9:22 AM 60.8 °F 57.2 °F 88% 30.20 in 10.0 mi NW 3.5 mph - N/A   Overcast
9:55 AM 60.8 °F 57.0 °F 87% 30.21 in 6.0 mi Calm Calm - N/A   Overcast
10:12 AM 60.8 °F 57.2 °F 88% 30.21 in 9.0 mi North 3.5 mph - N/A   Overcast
10:55 AM 61.7 °F 56.7 °F 84% 30.22 in 10.0 mi Calm Calm - N/A   Overcast
11:55 AM 62.1 °F 57.2 °F 84% 30.22 in 10.0 mi Calm Calm - N/A   Overcast
12:52 PM 64.4 °F 57.2 °F 77% 30.23 in 10.0 mi SW 3.5 mph - N/A   Overcast
12:55 PM 63.9 °F 57.4 °F 79% 30.23 in 10.0 mi WSW 3.5 mph - N/A   Overcast
1:36 PM 64.4 °F 57.2 °F 77% 30.24 in 10.0 mi South 3.5 mph - N/A   Overcast
1:55 PM 66.2 °F 57.9 °F 75% 30.24 in 10.0 mi SSW 3.5 mph - N/A   Overcast
2:55 PM 68.0 °F 58.3 °F 71% 30.24 in 10.0 mi SSW 10.4 mph - N/A   Overcast
3:55 PM 70.0 °F 58.6 °F 67% 30.24 in 10.0 mi SSW 9.2 mph - N/A   Clear
4:55 PM 68.7 °F 57.9 °F 68% 30.25 in 10.0 mi West 11.5 mph - N/A   Clear
5:55 PM 68.9 °F 58.5 °F 69% 30.25 in 10.0 mi West 11.5 mph - N/A   Clear
6:55 PM 65.7 °F 57.4 °F 75% 30.25 in 10.0 mi WSW 15.0 mph - N/A   Clear
7:55 PM 63.1 °F 56.3 °F 78% 30.25 in 10.0 mi WSW 15.0 mph - N/A   Clear
8:55 PM 62.1 °F 55.8 °F 80% 30.27 in 10.0 mi WSW 17.3 mph - N/A   Clear
9:55 PM 60.4 °F 55.6 °F 84% 30.28 in 10.0 mi WSW 12.7 mph - N/A   Clear
10:26 PM 60.8 °F 55.4 °F 82% 30.29 in 10.0 mi SW 12.7 mph - N/A   Mostly Cloudy
10:55 PM 60.1 °F 55.6 °F 85% 30.29 in 10.0 mi WSW 12.7 mph - N/A   Overcast
11:55 PM 60.1 °F 55.0 °F 83% 30.31 in 10.0 mi West 9.2 mph - N/A   Overcast
11:59 PM 59.0 °F 55.4 °F 88% 30.31 in 10.0 mi WSW 9.2 mph - N/A   Overcast